www.pogodaiklimat.ru

Погода и климат >> Архив погоды >> Россия >> Волгоградская область >> Нижний Чир


ПОГОДА в Нижнем Чире

  • Прогноз погоды в Нижнем Чире
  • Монитор погоды в Нижнем Чире

АРХИВ ПОГОДЫ в Нижнем Чире

Время (UTC), дата Ветер
(напр.,м/с)
 
Видим.   Явления Облачность Т
(С)
Тd
(С)
f
(%)
Тe
(С)
Тes
(С)
Комфортность P
(гПа)
Po
(гПа)
Тmin
(С)
Tmax
(С)
R
(мм)
R24
(мм)
S
(см)
06 15.08 СВ 1 20 км ясно +25.0 +14.2 51 +27 +37 жарко 1014.3 1006.5
09 15.08 С 1 20 км ясно +30.2 +9.7 28 +30 +47 жарко 1013.8 1006.1
12 15.08 СВ 1 20 км ясно +32.8 +11.9 28 +33 +44 жарко 1011.9 1004.4
15 15.08 В 3 20 км ясно +29.8 +16.4 44 +33 +34 душно 1010.7 1003.1 +33.5
18 15.08 ЮВ 3 20 км ясно +28.9 +11.7 34 +30 +30 жарко 1011.5 1003.8
21 15.08 Ю 5 20 км ясно +25.8 +9.0 35 +26 +26 жарко 1011.7 1004.0
00 16.08 ЮВ 2 20 км 3/0
[Ci fib]
+22.0 +9.1 44 +23 +23 комфорт 1011.4 1003.6
03 16.08 ЮВ 3 20 км 6/0
[Ci fib]
+20.9 +9.1 47 +23 +23 комфорт 1012.2 1004.4 +20.0
06 16.08 Ю 4 20 км 9/0
[Ac lent Ci]
+25.0 +10.3 40 +26 +30 жарко 1011.5 1003.8
09 16.08 ЮВ 8-10
{12}
20 км 9/0
[Ac lent Ci]
+29.0 +9.3 29 +29 +30 жарко 1010.3 1002.6
12 16.08 ЮВ 6 20 км 9/8 600 м
[Sc Ci]
+30.8 +12.2 32 +31 +32 жарко 1008.4 1000.8
15 16.08 Ю 3 20 км 9/3 600 м
[Sc Ac lent Ci]
+30.8 +12.4 32 +31 +32 жарко 1007.8 1000.2 +32.6
18 16.08 ЮВ 1 20 км 9/3 600 м
[Sc Ac lent Ci]
+26.2 +8.0 32 +26 +26 жарко 1008.3 1000.6
21 16.08 Ю 4 20 км 9/8 600 м
[Sc Ac lent]
+26.0 +9.5 35 +26 +26 жарко 1008.9 1001.2
00 17.08 Ю 1 20 км 10/10 600 м
[Sc]
+24.0 +12.1 47 +26 +26 жарко 1009.7 1001.9
03 17.08 В 2 20 км 10/10 600 м
[Sc]
+22.2 +13.2 57 +25 +25 комфорт 1008.6 1000.8 +22.2
06 17.08 В 2 20 км 10/6 600 м
[Sc Ac trans Ci]
+24.2 +12.2 47 +26 +28 жарко 1009.4 1001.6
09 17.08 ЮВ 5 20 км в посл. час ливневой дождь 8/8 600 м
[Sc]
+25.7 +13.1 46 +28 +29 жарко 1008.1 1000.4
12 17.08 Ю 8-10
{13}
20 км {ливн. осадки} 9/5 600 м
[Sc Ac trans Ci]
+28.2 +12.5 38 +30 +30 жарко 1007.8 1000.1
15 17.08 СВ 4 20 км 8/6 600 м
[Sc Ac trans]
+29.1 +14.4 41 +31 +31 жарко 1007.7 1000.1 +30.1 0.0
18 17.08 Ю 2 20 км 6/4 600 м
[Sc Ac trans]
+25.0 +15.4 55 +28 +28 жарко 1008.9 1001.2
21 17.08 Ю 2 20 км ясно +23.7 +16.0 62 +27 +27 жарко 1009.4 1001.6
00 18.08 З 1 20 км ясно +22.1 +16.7 71 +26 +26 душно 1009.7 1001.9
03 18.08 ЮЗ 1 20 км 8/3 600 м
[Sc Ac trans Ci]
+20.1 +16.6 80 +24 +24 комфорт 1010.3 1002.5 +20.0
06 18.08 С 1 20 км 9/3 600 м
[Sc Ci]
+24.4 +17.7 66 +28 +34 душно 1010.6 1002.9
09 18.08 СВ 1 20 км 9/6 600 м
[Cu med, cong Ac trans Ci fib]
+29.0 +14.5 41 +31 +35 жарко 1009.9 1002.3
12 18.08 С 2 10 км гроза, ливневой дождь 10/10 300 м
[Cb cap]
+29.2 +16.0 45 +32 +32 душно 1010.1 1002.5
15 18.08 СЗ 4 20 км гроза, ливневой дождь н/о +22.2 +16.6 71 +27 +27 душно 1009.7 1001.9 +28.6 8
18 18.08 З 2 20 км {гроза, ливн. осадки} 6/6 600 м
[Sc]
+21.8 +16.8 73 +26 +26 душно 1011.3 1003.5
21 18.08 В 1 20 км 1/0
[Ac trans]
+22.4 +17.2 72 +27 +27 душно 1012.0 1004.2
00 19.08 В 1 20 км 6/6 600 м
[Sc]
+20.8 +13.9 65 +25 +25 комфорт 1013.0 1005.1
03 19.08 20 км н/о +19.8 +13.3 66 +21 +22 комфорт 1014.1 1006.1 +17.0
06 19.08 СВ 1 20 км 8/0
[Ac trans]
+24.2 +13.2 50 +26 +31 жарко 1014.4 1006.6
09 19.08 С 2 20 км 1/1 1000 м
[Cu med, cong]
+29.4 +11.7 34 +30 +43 жарко 1014.5 1006.8
12 19.08 С 3 20 км 1/1 1000 м
[Cu med, cong]
+32.9 +13.7 31 +34 +40 очень
жарко
1013.6 1006.0
15 19.08 С 1 20 км 6/3 1000 м
[Cu med, cong Ci fib]
+32.2 +15.1 36 +34 +35 душно 1013.7 1006.1 +33.0
18 19.08 СЗ 1 20 км ясно +28.8 +14.2 41 +31 +31 жарко 1014.5 1006.8
21 19.08 СЗ 3 20 км ясно +25.6 +14.4 50 +28 +28 жарко 1015.2 1007.5
00 20.08 З 4 20 км ясно +22.1 +13.3 57 +25 +25 комфорт 1015.8 1007.9
03 20.08 СЗ 3 20 км ясно +20.7 +14.8 69 +24 +24 комфорт 1016.7 1008.8 +20.7
06 20.08 СВ 2 20 км ясно +24.9 +17.0 62 +29 +37 душно 1017.5 1009.7
09 20.08 СВ 1 20 км ясно +30.0 +18.9 51 +35 +52 опасность
солнечного
удара
1017.3 1009.7
12 20.08 В 2 20 км ясно +34.2 +12.9 28 +35 +43 очень
жарко
1016.3 1008.7
15 20.08 СЗ 1 20 км ясно +32.4 +13.2 31 +33 +34 жарко 1016.2 1008.6 +35.5
18 20.08 СЗ 1 20 км ясно +28.8 +6.7 25 +28 +28 жарко 1016.7 1009.0
21 20.08 С 4 20 км ясно +25.6 +16.9 59 +29 +29 душно 1017.4 1009.7
00 21.08 СЗ 4 20 км ясно +23.3 +16.8 67 +28 +28 душно 1018.2 1010.3
03 21.08 С 2 20 км ясно +21.0 +16.0 73 +25 +25 комфорт 1018.2 1010.3 +20.8
06 21.08 В 3 20 км 3/0
[Ci fib]
+25.2 +17.6 63 +29 +35 душно 1018.3 1010.5
09 21.08 СВ 2 20 км 3/0
[Ci fib]
+29.8 +17.0 46 +33 +47 душно 1017.3 1009.6
12 21.08 СВ 3 20 км ясно +33.0 +14.6 33 +35 +42 душно 1016.0 1008.4
15 21.08 СВ 2 20 км ясно +30.8 +17.3 44 +35 +35 очень
душно
1015.2 1007.6 +33.5
18 21.08 В 4 20 км ясно +27.6 +17.9 56 +32 +32 очень
душно
1015.9 1008.2
21 21.08 СВ 6
{10}
20 км ясно +26.0 +16.1 54 +29 +29 душно 1016.5 1008.8
00 22.08 СВ 5 20 км ясно +24.2 +15.1 57 +27 +27 жарко 1016.7 1008.9
03 22.08 СВ 4 20 км ясно +22.8 +15.7 64 +27 +27 душно 1017.2 1009.3 +22.6

 

Местоположение метеостанции Нижний Чир (Волгоградская область, Россия): широта 48.33 долгота 43.12 высота над уровнем моря 74 м.

В архиве по умолчанию представлена погода в Нижнем Чире за последнюю неделю. Архивные данные за месяц целиком и за предыдущие месяцы, начиная с января 2011 года, Вы можете получить, выбрав интересующий диапазон дат из раскрывающегося списка и нажав кнопку "Ввод!".


*Определитесь, кто Вы:
робот инопланетянин человек

Внимание! Время в таблицах - всемирное. Для получения местного времени необходимо прибавить поправку, которая равна 3 ч.

Смотрите также архив погоды в соседних городах и на ближайших метеорологических станциях:

Погода в Калаче-на-Дону (Волгоградская область, Россия) (47 км)
Погода в Котельниково (Волгоградская область, Россия) (78 км)
Погода в Морозовске (Ростовская область, Россия) (92 км)
Погода в Волгограде (Волгоградская область, Россия) (105 км)
Погода в Волгограде город (Волгоградская область, Россия) (105 км)
Погода в Цимлянске (Ростовская область, Россия) (108 км)
Погода в Малых Дербетах (Калмыкия, Россия) (125 км)
Погода в Иловле (Волгоградская область, Россия) (126 км)
Погода в Боковской (Ростовская область, Россия) (137 км)
Погода в Зимовниках (Ростовская область, Россия) (140 км)

Пояснения к столбцам:

Ветер - указаны скорость ветра в м/с - средняя за 10 мин, порывы в срок и между сроками (в фигурных скобках) и направление, откуда дует ветер: С - северный, СВ - северо-восточный, В - восточный, ЮВ - юго-восточный, Ю - южный, ЮЗ - юго-западный, З - западный, СЗ - северо-западный.
Видимость - горизонтальная дальность видимости в метрах или километрах. При видимости от 1 до 10 км при отсутствии осадков обычно наблюдается дымка, при ухудшении видимости до 1 км и менее - туман. В сухую погоду видимость может ухудшаться дымом, пылью или мглою.
Явления - указаны атмосферные явления, наблюдавшиеся в срок или в последний час перед сроком; фигурными скобками обозначены явления, наблюдавшиеся между сроками (за 1-3 часа до срока); квадратными скобками обозначены град или гололедные отложения с указанием их диаметра в мм.
Облачность - указаны через наклонную черту общая и нижняя облачность в баллах и высота нижней границы облаков в метрах; квадратными скобками обозначены формы облаков: Ci - перистые, Cs - перисто-слоистые, Cc - перисто-кучевые, Ac - высококучевые, As - высокослоистые, Sc - слоисто-кучевые, Ns - слоисто-дождевые, Cu - кучевые, Cb - кучево-дождевые. Подробнее классификацию облаков см. в Атласе облаков (PDF).
T - Температура воздуха - температура, измеренная на высоте 2 м над землей.
Td - Температура точки росы - температура, при понижении до которой содержащийся в воздухе водяной пар достигнет насыщения.
f - Относительная влажность воздуха - влажноcть воздуха, измеренная на высоте 2 м над землей.
Te - Эффективная температура - температура, которую ощущает одетый по сезону человек в тени. Характеристика душности погоды. При расчете учитывается влияние влажности воздуха и скорости ветра на теплоощущения человека.
Tes - Эффективная температура на солнце - температура, которую ощущает человек, с поправкой на солнечный нагрев. Характеристика знойности погоды. Зависит от высоты солнца над горизонтом, облачности и скорости ветра. Ночью, в пасмурную погоду, а также при ветре 12 м/с и более поправка равна нулю.
P - Атмосферное давление - приведенное к уровню моря атмосферное давление.
Po - Атмосферное давление - измеренное на уровне метеостанции атмосферное давление.
Tmin - Минимальная температура - минимум температуры воздуха на высоте 2 м над землей.
Tmax - Максимальная температура - максимум температуры воздуха на высоте 2 м над землей.
R - Количество осадков - Количество выпавших осадков за период времени, мм. При наведении курсора мыши на число - период времени, за который выпало указанное количество осадков.
R24 - Количество осадков - Количество выпавших осадков за 24 часа, мм.
S - Снежный покров - Высота снежного покрова, см. При наведении курсора мыши на число - состояние снежного покрова и степень покрытия местности в баллах.